sat.trackr.live / text

‹ back to catalog

STARLINK-32621

NORAD 62303 · 2024-239C

PAYLOAD ACTIVE UNKNOWN

§ Identity

Operator
Country
US
Launch date
2024-12-13
Launch site
AFWTR
Launch vehicle
Mass (kg)
RCS (m²)

Purposes: comms

External: N2YO · Heavens-Above · Gunter

§ Orbital elements

Epoch: 2026-05-25T02:07:53.583168Z

Period
94.10 min
Inclination
53.1580°
Eccentricity
0.0001366
Mean motion
15.30212041 rev/d
Perigee alt
474.2 km
Apogee alt
476.1 km
Semi-major
6,853.3 km
B*
3.6590e-4
RAAN
186.0825°
Arg perigee
84.2398°
Mean anomaly
275.8758°
Rev number
8,126

§ Raw data

STARLINK-326211 62303U 24239C   26145.08881462  .00010497  00000+0  36590-3 0  99952 62303  53.1580 186.0825 0001366  84.2398 275.8758 15.30212041 81266

JSON: /api/v1/satellites/62303 · /tle

For live sub-satellite position, see the globe view (requires WebGL).

§ Visibility from observer

Set your observer location to see the next 7 days of passes ≥ 10°. The values pass through the URL so the page stays shareable.

No JS? Fill the form by hand. The geolocation button needs JavaScript.